AO-07 1 07530U 74089B 21182.54773019 -.00000030 00000-0 99564-4 0 9994 2 07530 101.8543 157.0359 0012318 357.2711 120.4892 12.53649248133490 UO-11 1 14781U 84021B 21182.56057900 .00000144 00000-0 23653-4 0 9994 2 14781 97.5923 181.7073 0009479 43.1283 317.0673 14.83297942988028 LO-19 1 20442U 90005G 21182.38214957 .00000010 00000-0 20228-4 0 9998 2 20442 98.7420 137.9759 0012755 117.4641 242.7841 14.32990299642827 HUBBLE 1 20580U 90037B 21182.59773771 .00000643 00000-0 27909-4 0 9998 2 20580 28.4707 331.4905 0002552 212.5819 240.1803 15.09671884513154 MET-2/21 1 22782U 93055A 21182.60169898 .00000057 00000-0 37910-4 0 9990 2 22782 82.5498 292.6780 0021135 250.5208 119.9192 13.83837706405486 AO-27 1 22825U 93061C 21182.58113079 -.00000008 00000-0 14764-4 0 9991 2 22825 98.9164 200.5433 0008393 1.5644 358.5562 14.30118117448005 IO-26 1 22826U 93061D 21182.61813887 -.00000001 00000-0 17674-4 0 9996 2 22826 98.9106 200.4885 0008665 348.1986 11.8991 14.30457502448259 FO-29 1 24278U 96046B 21182.42552165 -.00000047 00000-0 -14231-4 0 9990 2 24278 98.5665 248.5504 0351352 113.4209 250.4283 13.53105337228132 NOAA-15 1 25338U 98030A 21182.60975671 .00000078 00000-0 51095-4 0 9995 2 25338 98.6805 211.0075 0009393 235.7862 124.2428 14.26041717203014 GO-32 1 25397U 98043D 21182.46162770 -.00000009 00000-0 15615-4 0 9999 2 25397 98.7715 127.9758 0002245 63.4357 296.7051 14.23710789193482 ISS 1 25544U 98067A 21182.56112803 .00001466 00000-0 35026-4 0 9997 2 25544 51.6447 271.6406 0002235 127.9431 0.1719 15.48753629290823 NO-44 1 26931U 01043C 21182.57935877 -.00000034 00000-0 18846-4 0 9993 2 26931 67.0506 243.9816 0006292 261.2726 98.7663 14.30623495 31218 SO-50 1 27607U 02058C 21182.59903521 .00000015 00000-0 22673-4 0 9995 2 27607 64.5560 295.0890 0042249 16.2359 344.0085 14.75761495996614 CO-55 1 27844U 03031E 21182.61618690 .00000057 00000-0 45012-4 0 9991 2 27844 98.6790 190.6136 0010729 43.4488 316.7534 14.22317362933995 CO-57 1 27848U 03031J 21182.47285582 .00000050 00000-0 42398-4 0 9996 2 27848 98.6846 191.0361 0010796 56.0153 304.2049 14.21893520933806 RS-22 1 27939U 03042A 21182.56905359 .00000139 00000-0 33648-4 0 9996 2 27939 98.1441 319.5655 0011885 230.9248 129.0909 14.66995402949596 NOAA-18 1 28654U 05018A 21182.61199656 .00000097 00000-0 76746-4 0 9996 2 28654 98.9931 247.5325 0013347 239.6326 120.3527 14.12618533830446 CO-58 1 28895U 05043F 21182.30106950 .00000209 00000-0 48944-4 0 9996 2 28895 98.0609 315.2382 0017243 162.5319 197.6481 14.63926847836030 Falconsat-3 1 30776U 07006E 21182.61838231 .00007092 00000-0 16902-3 0 9991 2 30776 35.4355 9.1841 0002326 7.5334 352.5428 15.40917446795290 CO-65 1 32785U 08021C 21182.51416527 .00000353 00000-0 43433-4 0 9993 2 32785 97.6114 160.8115 0011954 322.7737 37.2651 14.88740733714335 AAUSAT2 1 32788U 08021F 21182.53913503 .00001194 00000-0 11238-3 0 9995 2 32788 97.5048 176.6056 0010420 215.8965 144.1558 14.95622455715966 DO-64 1 32789U 08021G 21182.60531061 .00002150 00000-0 13935-3 0 9998 2 32789 97.3744 217.4259 0013616 94.1987 266.0799 15.09065952718962 CO-66 1 32791U 08021J 21182.38433795 .00000610 00000-0 66336-4 0 9994 2 32791 97.5711 166.5852 0011597 281.9103 78.0815 14.91433067714856 RS-30 1 32953U 08025A 21182.39287303 .00000021 00000-0 80971-4 0 9998 2 32953 82.5050 42.2620 0019035 309.2641 50.6750 12.43102217594715 PRISM 1 33493U 09002B 21182.49226066 .00000870 00000-0 79724-4 0 9990 2 33493 98.1883 145.7115 0013963 238.2513 121.7347 14.97698444676427 NOAA-19 1 33591U 09005A 21182.57658468 .00000073 00000-0 64833-4 0 9996 2 33591 99.1821 203.6317 0015012 92.9913 267.2976 14.12479230638657 SRMSAT 1 37841U 11058D 21182.44173343 .00000296 00000-0 17569-4 0 9990 2 37841 19.9706 216.5338 0012072 87.4002 43.1481 14.10698114501639 HRBE 1 37855U 11061F 21182.35901872 .00004618 00000-0 22623-3 0 9993 2 37855 101.7113 112.9656 0166753 29.3593 331.6863 15.07772581528270 RS-40 1 38735U 12041C 21182.44294473 -.00000000 00000-0 -74773-4 0 9999 2 38735 82.4759 124.3742 0018477 56.9821 303.3034 12.42582875404923 ZACUBE-1 1 39417U 13066B 21182.49836764 .00000358 00000-0 50606-4 0 9998 2 39417 97.5930 166.0981 0060026 114.4189 246.3304 14.81531568411158 GOMX-1 1 39430U 13066Q 21182.51720529 .00000297 00000-0 62010-4 0 9991 2 39430 97.8141 104.7801 0151932 70.6900 291.0655 14.59624914405096 LO-74 1 39440U 13066AA 21182.48270935 .00000254 00000-0 42001-4 0 9990 2 39440 97.6767 151.1361 0079436 188.9391 171.0410 14.76258869409698 AO-73 1 39444U 13066AE 21182.47392257 .00000488 00000-0 65361-4 0 9998 2 39444 97.5834 168.4417 0059192 104.9946 255.7830 14.82442862409512 SPROUT 1 39770U 14029E 21182.52669906 .00000864 00000-0 99114-4 0 9995 2 39770 97.9185 293.7888 0009298 153.6895 206.4795 14.88467166385434 DTUSAT-2 1 40030U 14033W 21182.33229397 .00000446 00000-0 53341-4 0 9994 2 40030 97.9162 109.5757 0012979 124.7343 235.5098 14.89010299381387 EO-80 1 40032U 14033Y 21182.36309397 .00000436 00000-0 52292-4 0 9991 2 40032 97.9167 109.6133 0012900 125.6153 234.6268 14.88967769381882 HODOYOSHI-1 1 40299U 14070B 21182.47903669 .00000871 00000-0 37925-4 0 9990 2 40299 97.2854 255.6794 0011262 302.9838 152.6000 15.24761968369555 FIREBIRD FU3 1 40377U 15003B 21182.42005666 .00006636 00000-0 23932-3 0 9996 2 40377 99.1017 326.5773 0118164 125.8940 235.3330 15.22566098354918 FIREBIRD FU4 1 40378U 15003C 21182.33027820 .00007110 00000-0 25565-3 0 9995 2 40378 99.1022 326.6116 0118218 126.0068 235.2192 15.22618602354915 GRIFEX 1 40379U 15003D 21182.31044774 .00005194 00000-0 20901-3 0 9990 2 40379 99.0974 315.7888 0128632 158.7306 201.9339 15.18148040354297 NO-84 1 40654U 15025D 21181.44417144 .00042708 00000-0 28003-3 0 587 2 40654 54.9792 340.3440 0076769 99.7349 261.2357 15.71280702 9098 XW-2A 1 40903U 15049E 21182.48815660 .00003447 00000-0 73792-4 0 9997 2 40903 97.2345 236.9275 0011121 331.5438 136.8300 15.45426025324964 XW-2C 1 40906U 15049H 21182.55135333 .00000922 00000-0 50257-4 0 9996 2 40906 97.4854 184.7275 0015656 133.3072 343.0765 15.16777110319708 XW-2D 1 40907U 15049J 21182.54411240 .00001161 00000-0 61859-4 0 9996 2 40907 97.4841 184.5192 0015011 129.5814 354.8598 15.17103496319735 LILACSAT-2 1 40908U 15049K 21182.50302294 .00000292 00000-0 19428-4 0 9990 2 40908 97.5033 182.3028 0016553 145.6973 18.9723 15.14459045319358 XW-2E 1 40909U 15049L 21182.48153640 .00001691 00000-0 82483-4 0 9992 2 40909 97.4652 188.4852 0014664 117.2087 42.1448 15.19595769320061 XW-2F 1 40910U 15049M 21182.54788352 .00001645 00000-0 81459-4 0 9996 2 40910 97.4713 187.6289 0015770 116.9569 1.5843 15.19096282319866 XW-2B 1 40911U 15049N 21182.54653682 .00001098 00000-0 58804-4 0 9994 2 40911 97.4841 185.2015 0015007 131.0040 347.2280 15.17019535319628 DCBB 1 40912U 15049P 21182.52784858 .00001917 00000-0 87692-4 0 9990 2 40912 97.4429 191.9819 0016112 92.5568 59.6161 15.21643370320338 TW-1A 1 40928U 15051D 21182.52519741 .00004845 00000-0 10091-3 0 9998 2 40928 97.0750 207.0894 0007649 234.0211 281.3526 15.46030289323869 IO-86 1 40931U 15052B 21182.38921036 .00000702 00000-0 86419-5 0 9998 2 40931 5.9976 152.9786 0013251 244.5038 115.3698 14.76679605311369 ATHENOXAT-1 1 41168U 15077C 21182.27768529 .00002757 00000-0 10437-3 0 9999 2 41168 14.9835 159.3519 0010704 5.3204 33.2679 15.15764918306883 ChubuSat-2 1 41338U 16012B 21182.43682681 .00000480 00000-0 30304-4 0 9997 2 41338 31.0034 96.9822 0013768 271.8234 88.0824 15.00543399294701 ChubuSat-3 1 41339U 16012C 21182.19243310 .00000349 00000-0 20147-4 0 9991 2 41339 31.0116 95.7497 0013785 277.8973 82.0098 15.00688616294667 Horyu-4 1 41340U 16012D 21182.04378100 .00000744 00000-0 48910-4 0 9990 2 41340 31.0060 80.0992 0013819 307.0229 52.9143 15.01913129294839 e-st@r-II 1 41459U 16025D 21182.48122759 .00001401 00000-0 71644-4 0 9991 2 41459 98.1443 319.5175 0160194 15.8949 344.7203 15.08181251284539 AAUSAT4 1 41460U 16025E 21182.61376278 .00001827 00000-0 87985-4 0 9992 2 41460 98.1445 323.6067 0146568 359.0652 1.0267 15.11295162284851 LO-87 1 41557U 16033B 21182.52250093 .00002198 00000-0 79298-4 0 9994 2 41557 97.3940 276.3801 0013011 177.6051 240.6510 15.29524472283682 NuSat2 1 41558U 16033C 21182.50466758 .00002171 00000-0 73542-4 0 9997 2 41558 97.4054 280.2478 0012229 170.5624 250.6999 15.31614978283879 Lapan A3 1 41603U 16040E 21182.48457286 .00000154 00000-0 10172-4 0 9998 2 41603 97.2538 228.8830 0012258 319.7622 147.2783 15.20047200278717 Pratham 1 41783U 16059A 21182.41568090 .00000102 00000-0 28666-4 0 9996 2 41783 97.9630 232.0435 0033075 199.6806 160.3122 14.63147617254292 TY-1 1 41844U 16066D 21182.50294382 .00001345 00000-0 55240-4 0 9990 2 41844 97.3974 192.5733 0016420 88.2760 63.2771 15.25829575258040 CAS-2T 1 41847U 16066G 21182.45939040 .00000231 00000-0 44823-4 0 9992 2 41847 98.6003 241.6496 0365360 178.4052 181.8397 14.38202992243897 EO-88 1 42017U 17008BX 21182.44217922 .00003718 00000-0 13757-3 0 9990 2 42017 97.3148 249.7917 0007496 67.5335 292.6698 15.28274667243393 CAS-4B 1 42759U 17034B 21182.52951060 .00000494 00000-0 42987-4 0 9995 2 42759 43.0175 103.6945 0010002 257.8085 272.4893 15.10245007223271 CAS-4A 1 42761U 17034D 21182.51941863 .00000545 00000-0 45939-4 0 9994 2 42761 43.0175 102.7944 0010345 258.2541 270.6495 15.10332453223275 NIUSat 1 42766U 17036B 21182.37760163 .00002041 00000-0 89937-4 0 9996 2 42766 97.2489 227.8679 0016528 123.2798 237.0025 15.22791308223331 Aalto 1 1 42775U 17036L 21182.08805686 .00001492 00000-0 66695-4 0 9999 2 42775 97.2457 227.8317 0015007 123.0623 237.2058 15.22727504223279 URSA MAIOR 1 42776U 17036M 21182.08814564 .00001683 00000-0 74296-4 0 9993 2 42776 97.2472 228.3055 0014808 122.4780 237.7891 15.22995310223291 Max Valier Sat 1 42778U 17036P 21182.09557482 .00001856 00000-0 80092-4 0 9992 2 42778 97.2538 230.2589 0013409 123.8294 236.4222 15.23664141223369 Pegasus 1 42784U 17036V 21182.09011714 .00002465 00000-0 10288-3 0 9998 2 42784 97.2488 230.7330 0012930 126.6066 233.6364 15.24498618223434 NUDATSat 1 42787U 17036Y 21182.60352874 .00002883 00000-0 11307-3 0 9990 2 42787 97.2533 233.6812 0012049 116.4161 243.8317 15.26468248223494 SUCHAI 1 1 42788U 17036Z 21182.41006158 .00003334 00000-0 13493-3 0 9991 2 42788 97.2499 232.0494 0012491 122.8562 237.3881 15.25305520223612 SKCUBE 1 42789U 17036AA 21182.37603518 .00003020 00000-0 12348-3 0 9990 2 42789 97.2492 231.7223 0012389 123.5584 236.6839 15.25035338223511 VZLUSAT 1 1 42790U 17036AB 21182.40115168 .00004287 00000-0 16692-3 0 9997 2 42790 97.2526 233.4745 0011863 119.3177 240.9249 15.26448795223616 VENTA 1 1 42791U 17036AC 21182.09517434 .00002582 00000-0 10616-3 0 9991 2 42791 97.2488 231.4629 0012073 124.7250 235.5127 15.24977718223467 Robusta 1B 1 42792U 17036AD 21182.40832789 .00003241 00000-0 13139-3 0 9996 2 42792 97.2496 232.1383 0011971 123.1879 237.0509 15.25275170223553 D-SAT 1 42794U 17036AF 21182.51347498 .00000342 00000-0 34616-4 0 9991 2 42794 97.4603 201.6592 0125554 178.2201 181.9492 14.91589644219158 TechnoSat 1 42829U 17042E 21182.54480603 .00000149 00000-0 20205-4 0 9990 2 42829 97.4674 51.3329 0015763 99.0716 261.2288 14.91298387215785 QIKCOM-1 1 42983U 98067NF 21182.48684421 .00010219 00000-0 98876-4 0 9992 2 42983 51.6351 188.0602 0003915 45.1884 314.9430 15.67088899209604 AO-91 1 43017U 17073E 21182.46749846 .00000548 00000-0 48230-4 0 9993 2 43017 97.7059 85.9007 0253348 254.6088 102.7007 14.79585852195197 EcAMSat 1 43019U 98067NG 21182.34587446 .00044531 00000-0 23338-3 0 9991 2 43019 51.6363 152.6160 0003884 45.4914 314.6405 15.80316561292387 PICSAT 1 43132U 18004X 21182.15748079 .00002774 00000-0 11084-3 0 9998 2 43132 97.4083 256.5772 0009863 151.0726 209.1061 15.25931059192773 AO-92 1 43137U 18004AC 21182.43755542 .00002216 00000-0 90757-4 0 9993 2 43137 97.4064 256.3263 0009511 152.5357 207.6385 15.25319464192790 TianYi 2 1 43155U 18008A 21182.48704565 .00000892 00000-0 54802-4 0 9990 2 43155 97.4012 247.0331 0015441 281.4767 174.1954 15.12482267190192 Zhou Enlai 1 43156U 18008B 21182.49174131 .00001074 00000-0 65961-4 0 9993 2 43156 97.4060 246.8732 0012632 281.3033 175.5342 15.12092610190131 TianYi 6 1 43158U 18008D 21182.49827701 .00001409 00000-0 86745-4 0 9998 2 43158 97.4010 245.4353 0011815 280.0744 137.3730 15.11519689190067 S-Net D 1 43186U 18014G 21182.45921939 -.00000025 00000-0 28147-5 0 9997 2 43186 97.6766 89.7954 0011902 39.8809 320.3285 14.97075896186393 S-Net B 1 43187U 18014H 21182.25862717 -.00000019 00000-0 33302-5 0 9996 2 43187 97.6763 89.5644 0011923 40.4393 319.7712 14.97075555186360 S-Net A 1 43188U 18014J 21182.45920487 -.00000030 00000-0 24059-5 0 9990 2 43188 97.6766 89.8067 0011896 39.9416 320.2679 14.97074204186396 S-Net C 1 43189U 18014K 21182.45968771 -.00000008 00000-0 43261-5 0 9990 2 43189 97.6762 89.7543 0011877 39.8083 320.4008 14.97073887184942 FMN 1 1 43192U 18015A 21182.48521678 .00003758 00000-0 13934-3 0 9995 2 43192 97.4911 317.9214 0014391 186.6773 241.7093 15.28159180189739 Shaonian Xing 1 43199U 18015H 21182.51339904 .00002603 00000-0 98968-4 0 9994 2 43199 97.4698 315.0557 0015355 197.2060 227.8279 15.27611216189794 SurfSat 1 43614U 18070B 21182.36527272 .00006824 00000-0 15842-3 0 9995 2 43614 93.0333 311.7835 0011940 317.7711 42.2624 15.42316121156818 CP-7 DAVE 1 43615U 18070C 21182.32029467 .00006283 00000-0 14732-3 0 9991 2 43615 93.0336 311.7190 0012178 317.9548 42.0772 15.42020549156795 ELFIN-B 1 43616U 18070D 21182.31650844 .00011268 00000-0 23875-3 0 9997 2 43616 93.0289 311.9239 0011764 314.5710 45.4586 15.45007000156917 ELFIN-A 1 43617U 18070E 21182.33676403 .00011852 00000-0 24703-3 0 9999 2 43617 93.0337 312.7920 0011063 310.6378 49.3917 15.45495493156937 STARS-Me Mother 1 43640U 98067PQ 21177.48090856 .06251270 12411-4 46174-3 0 9996 2 43640 51.6078 176.1291 0003401 286.8094 73.2559 16.39860287155785 CubeBel 1 1 43666U 18083E 21182.48044674 .00001724 00000-0 84426-4 0 9998 2 43666 97.4541 210.6719 0016156 116.7882 20.0473 15.19403430148149 Changshagaoxin 1 43669U 18083H 21182.54451278 .00001244 00000-0 64119-4 0 9994 2 43669 97.4450 207.7651 0012368 111.4042 9.6697 15.18165904148022 Ten-Koh 1 43677U 18084G 21182.35205639 .00000354 00000-0 42172-4 0 9997 2 43677 97.9221 305.4261 0015751 354.2095 5.8937 14.90479286145379 PO-101 1 43678U 18084H 21182.53955324 .00000039 00000-0 96816-5 0 9996 2 43678 97.9260 307.8914 0010265 13.0980 347.0470 14.91759980145536 IRVINE 01 1 43693U 18088D 21182.45888448 .00005648 00000-0 21925-3 0 9998 2 43693 85.0343 185.6509 0015256 342.3676 17.7037 15.25742757146577 QO-100 1 43700U 18090A 21182.48899983 .00000141 00000-0 00000-0 0 9990 2 43700 0.0202 11.2201 0001480 128.0142 342.3812 1.00273423 9518 Reaktor Hello World 1 43743U 18096AA 21182.52134609 .00002701 00000-0 98682-4 0 9996 2 43743 97.3853 259.9263 0016004 222.3053 137.6954 15.28870252144286 MinXSS-2 1 43758U 18099A 21182.48161507 .00001073 00000-0 10036-3 0 9994 2 43758 97.6664 253.3833 0015498 8.4496 351.6983 14.96082286140615 AO-95 1 43770U 18099N 21182.43541155 .00000170 00000-0 20550-4 0 9994 2 43770 97.6644 252.3137 0014870 17.0927 343.0791 14.95345271140540 RANGE-B 1 43772U 18099Q 21182.46092851 .00000705 00000-0 68474-4 0 9994 2 43772 97.6728 253.3553 0013930 4.3396 355.7943 14.95646955140556 RANGE-A 1 43773U 18099R 21182.44189628 .00000017 00000-0 67464-5 0 9997 2 43773 97.6577 251.6295 0013514 4.6712 355.4632 14.95230329140530 MOVE-II 1 43780U 18099Y 21182.45806737 .00000837 00000-0 79706-4 0 9994 2 43780 97.6659 252.8859 0013476 14.1769 345.9828 14.95957832140562 SNUSat 2 1 43782U 18099AA 21182.46587517 .00000733 00000-0 71065-4 0 9994 2 43782 97.6641 252.6895 0012555 4.2169 355.9156 14.95582349140566 SnugLite 1 43784U 18099AC 21182.47309603 .00000973 00000-0 92372-4 0 9995 2 43784 97.6607 252.4194 0015086 11.0810 349.0740 14.95711406140584 ITASat 1 1 43786U 18099AE 21182.41880203 .00000775 00000-0 74794-4 0 9999 2 43786 97.6666 252.9852 0015288 10.6686 349.4856 14.95637701140573 EAGLET 1 1 43790U 18099AJ 21182.45002869 .00000131 00000-0 16777-4 0 9995 2 43790 97.6652 253.4335 0013648 13.8510 346.3083 14.95982510140304 ESEO 1 43792U 18099AL 21182.50395034 -.00000246 00000-0 -16942-4 0 9995 2 43792 97.6620 253.0678 0013569 11.3034 348.8489 14.95750526140366 CSIM 1 43793U 18099AM 21182.45393295 .00000724 00000-0 68487-4 0 9997 2 43793 97.6646 253.4293 0012799 7.4765 352.6645 14.96620647140361 Astrocast 0.1 1 43798U 18099AS 21182.46454760 .00000651 00000-0 62748-4 0 9991 2 43798 97.6655 253.6490 0011907 354.4779 5.6309 14.96210451140615 JO-97 1 43803U 18099AX 21182.44722438 .00000227 00000-0 25358-4 0 9991 2 43803 97.6623 252.7633 0015183 9.5378 350.6129 14.95884865140583 Suomi 100 1 43804U 18099AY 21182.45299822 .00000376 00000-0 38735-4 0 9997 2 43804 97.6619 252.7345 0015214 9.6442 350.5069 14.95854131140593 Al Farabi 2 1 43805U 18099AZ 21182.58576004 -.00000086 00000-0 -25682-5 0 9990 2 43805 97.6621 253.0903 0015459 9.1039 351.0460 14.96074366140629 CHOMPTT 1 43855U 18104G 21182.30813514 .00002091 00000-0 84148-4 0 9999 2 43855 85.0375 284.3194 0019373 95.0818 265.2637 15.24041393141201 ISAT 1 43879U 18111D 21182.56936518 .00001203 00000-0 11034-3 0 9998 2 43879 97.6840 89.5783 0014589 59.6701 300.5966 14.96660050135164 UWE-4 1 43880U 18111E 21182.48834504 .00001122 00000-0 10267-3 0 9990 2 43880 97.6863 89.9819 0013713 61.3204 298.9395 14.96890434137182 Sparrow 1 43881U 18111F 21182.45851041 .00000194 00000-0 21899-4 0 9995 2 43881 97.6869 90.0876 0013705 57.2997 302.9544 14.96947042137189 Lume 1 1 43908U 18111AJ 21182.42477149 .00001945 00000-0 77385-4 0 9991 2 43908 97.2321 76.6890 0018787 239.7285 120.2095 15.26295037139803 FO-98 1 43933U 19003B 21182.38567281 .00020263 00000-0 75648-3 0 9995 2 43933 97.1819 223.2691 0014953 350.8124 9.2839 15.27309950136236 FO-99 1 43937U 19003F 21182.35654946 .00002804 00000-0 11167-3 0 9998 2 43937 97.1747 224.9814 0021956 327.1353 32.8519 15.25825030136380 MYSat 1 1 44045U 18092F 21182.48732246 .00007249 00000-0 18772-3 0 9997 2 44045 51.6388 357.6903 0009751 255.9150 104.0751 15.40106066133624 AstroCast 0.2 1 44083U 19018F 21182.43790410 .00002039 00000-0 90552-4 0 9999 2 44083 97.3718 243.2566 0011108 285.2439 74.7570 15.22641082125029 AISTechSat 3 1 44103U 19018AB 21182.44949399 .00001281 00000-0 55552-4 0 9994 2 44103 97.3578 243.6627 0011548 298.3417 117.8618 15.24119138125146 AISat 1 1 44104U 19018AC 21182.18810002 .00001376 00000-0 44995-4 0 9998 2 44104 97.4254 259.4916 0055200 307.5429 52.0804 15.32123947125772 Raavana-1 1 44329U 98067QE 21182.47115685 .00069382 00000-0 37925-3 0 9990 2 44329 51.6338 212.6274 0006310 1.0696 359.0318 15.79188406116372 Uguisu 1 44330U 98067QF 21182.47454018 .00065456 00000-0 36882-3 0 9997 2 44330 51.6291 213.2968 0006388 358.4152 1.6827 15.78536809116345 NepaliSat-1 1 44331U 98067QG 21182.34137056 .00083933 00000-0 45982-3 0 9995 2 44331 51.6316 213.1612 0006285 0.0049 0.0951 15.79063998116346 Prox-1 1 44339U 19036A 21182.50962531 .00000921 00000-0 16644-3 0 9993 2 44339 23.9995 245.6820 0011073 338.6818 21.3212 14.53615424107226 Oculus-ASR 1 44348U 19036K 21181.93917807 .00023875 00000-0 32270-3 0 9991 2 44348 28.5124 44.1319 0329173 52.9611 310.0626 15.12401288110954 Armadillo 1 44352U 19036P 21182.24047113 .00043252 00000-0 54249-3 0 9996 2 44352 28.5283 19.8448 0297808 90.5873 272.8850 15.20223504111175 NO-104 1 44354U 19036R 21182.28390342 .00028249 00000-0 37303-3 0 9998 2 44354 28.5283 34.8162 0324005 66.0122 297.4042 15.13957947111063 NO-103 1 44355U 19036S 21182.49341308 .00060768 -51009-5 64164-3 0 9998 2 44355 28.5257 346.0543 0258892 145.3567 216.4190 15.30886548111589 CP9 1 44360U 19036X 21182.52357404 .00102878 -41171-5 63732-3 0 9990 2 44360 28.5034 276.5933 0172964 260.2410 97.8621 15.57509102112147 Move-IIb 1 44398U 19038N 21182.58892153 .00001563 00000-0 90077-4 0 9996 2 44398 97.5842 146.5290 0022559 261.7342 98.1331 15.13719595109900 SONATE 1 44400U 19038Q 21182.60415153 .00000848 00000-0 52190-4 0 9993 2 44400 97.5911 146.4097 0023226 261.4517 98.4080 15.12579156109874 BeeSat 9 1 44412U 19038AC 21182.42189952 .00001615 00000-0 94002-4 0 9992 2 44412 97.5886 146.5134 0020431 266.1453 93.7442 15.13330428109561 JAISAT-1 1 44419U 19038F 21182.45329722 .00001564 00000-0 89992-4 0 9998 2 44419 97.5890 147.1033 0019265 264.0218 95.8817 15.13814671109912 LightSail-2 1 44420U 19036AC 21180.33775341 .00001905 00000-0 34172-3 0 9993 2 44420 24.0052 237.9109 0017615 353.4469 6.5792 14.60166791105246 Taurus 1 1 44530U 19059C 21182.49578236 .00000489 00000-0 14946-3 0 9996 2 44530 98.5528 272.9582 0015514 100.8136 259.4804 14.46087973 95112 Duchifat 3 1 44854U 19089C 21182.57702373 .00000584 00000-0 52969-4 0 9992 2 44854 36.9677 17.1094 0009432 261.0872 98.8807 14.99521700 85226 OPS-SAT 1 44878U 19092F 21182.50798554 .00001588 00000-0 84582-4 0 9992 2 44878 97.4753 5.7966 0015223 118.0501 242.2274 15.16568464 84966 TO-108 1 44881U 19093C 21182.51606555 .00000083 00000-0 17331-4 0 9994 2 44881 97.9239 261.1912 0013688 245.2996 114.6794 14.81459337 82817 FloripaSat 1 1 44885U 19093G 21182.46147245 .00000325 00000-0 47306-4 0 9992 2 44885 97.9267 261.7415 0013260 253.6439 106.3323 14.82313973 82842 RS-44 1 44909U 19096E 21182.46590584 .00000036 00000-0 95268-4 0 9999 2 44909 82.5218 103.5045 0218537 60.4616 301.8078 12.79710598 70611 SwampSat-2 1 45115U 19071E 21182.53817128 .00064843 00000-0 93371-3 0 9994 2 45115 51.6349 305.6242 0007576 343.4230 16.6513 15.55389205 79632 HO-107 1 45119U 19071J 21182.40645647 .00004948 00000-0 15005-3 0 9997 2 45119 51.6425 329.2290 0011040 343.0005 17.0606 15.35900741 79318 Phoenix 1 45258U 98067RB 21182.48865854 .00011850 00000-0 16785-3 0 9991 2 45258 51.6389 258.6691 0005471 312.4195 47.6333 15.56938350 77394 AztechSat-1 1 45261U 98067RE 21182.39113975 .00043989 00000-0 41908-3 0 9998 2 45261 51.6350 247.4893 0006910 334.9160 25.1499 15.66320478 77566 QARMAN 1 45263U 98067RG 21182.47162865 .00026701 00000-0 30122-3 0 9990 2 45263 51.6373 252.5590 0006524 328.1891 31.8709 15.62290893 77539 Quetzal 1 1 45598U 98067RL 21182.46921446 .00022502 00000-0 27558-3 0 9992 2 45598 51.6387 257.0670 0002382 28.0715 332.0406 15.60274233 66742 BY70-2 1 45857U 20042B 21182.53249280 .00001369 00000-0 20098-3 0 9995 2 45857 97.9835 258.1324 0011938 160.5598 199.6080 14.77072577 53629 UPMSat 2 1 46276U 20061E 21182.47249237 .00000827 00000-0 45839-4 0 9996 2 46276 97.4318 255.9692 0001146 34.2433 325.8874 15.16495032 45662 AmicalSat 1 46287U 20061R 21182.48560894 .00001243 00000-0 79243-4 0 9993 2 46287 97.4872 255.4449 0004129 65.3896 294.7764 15.10510395 45460 SALSAT 1 46495U 20068K 21182.63716623 .00001261 00000-0 96789-4 0 9995 2 46495 97.6924 120.0469 0017583 27.6364 332.5793 15.03478446 41460 BY70-3 1 46839U 20079N 21182.54332579 .00003443 00000-0 10766-3 0 9997 2 46839 97.2393 256.1191 0008051 145.4565 323.0735 15.33784241 36363 SPOC 1 46921U 98067RR 21182.53715909 .00010906 00000-0 16841-3 0 9994 2 46921 51.6414 265.7882 0001773 117.9005 242.2165 15.54673906 37057 Bobcat-1 1 46922U 98067RS 21182.47161092 .00017282 00000-0 24559-3 0 9995 2 46922 51.6419 264.6211 0001094 116.6771 243.4333 15.56493465 37028 Neutron-1 1 46923U 98067RT 21182.48957075 .00011450 00000-0 17725-3 0 9999 2 46923 51.6412 266.2174 0001598 134.4923 225.6199 15.54546687 37074 CAPE 3 1 47309U 21002A 21182.51701384 .00001203 00000-0 65317-4 0 9993 2 47309 60.6811 239.3764 0042189 55.3488 305.1563 15.20809480 25027 AO-109 1 47311U 21002C 21182.55094743 .00001506 00000-0 76891-4 0 9999 2 47311 60.6860 238.4217 0038997 56.1976 304.2813 15.21706052 25019 MiTEE 1 1 47314U 21002F 21182.54263474 .00002693 00000-0 12259-3 0 9995 2 47314 60.6847 237.2076 0037611 47.7251 312.7014 15.23196013 25054 ExoCube 2 1 47319U 21002L 21182.52482803 .00000968 00000-0 54371-4 0 9992 2 47319 60.6826 238.8464 0039112 56.4921 303.9892 15.21325237 24979 UVSQ-SAT 1 47438U 21006AB 21182.13642370 .00001261 00000-0 74622-4 0 9990 2 47438 97.4864 243.1151 0014037 55.7365 304.5193 15.13175785 24126 YUSAT 1 1 47439U 21006AC 21182.40325054 .00001532 00000-0 89885-4 0 9996 2 47439 97.4868 243.3755 0013888 55.3271 304.9266 15.13174344 24167 SOMP 2b 1 47445U 21006AJ 21182.41677289 .00001271 00000-0 75517-4 0 9991 2 47445 97.4837 243.2944 0013704 58.3751 301.8815 15.13015647 24168 IDEASSat 1 47458U 21006AX 21182.43094393 .00001358 00000-0 80734-4 0 9999 2 47458 97.4927 243.4683 0012775 56.7070 303.5383 15.12879105 24162 RSP-01 1 47925U 98067SB 21182.53656199 .00012529 00000-0 21261-3 0 9999 2 47925 51.6421 270.2662 0002146 77.7801 282.3429 15.51880274 16969 TAUSAT-1 1 47926U 98067SC 21182.50396773 .00014284 00000-0 23550-3 0 9999 2 47926 51.6415 270.0479 0003077 79.9676 280.1661 15.52558820 16958 Tsuru 1 47927U 98067SD 21182.54257529 .00010712 00000-0 18414-3 0 9994 2 47927 51.6423 270.3061 0002289 77.1375 282.9870 15.51691640 16968 STARS-EC 1 47928U 98067SE 21182.53979247 .00015405 00000-0 25812-3 0 9996 2 47928 51.6416 270.2813 0004841 161.9352 198.1810 15.52030759 16947 Maya-2 1 47929U 98067SF 21182.54034566 .00010346 00000-0 17793-3 0 9992 2 47929 51.6422 270.2912 0002370 74.6606 285.4645 15.51721322 16928 OPUSAT-II 1 47930U 98067SG 21182.52105644 .00017324 00000-0 28525-3 0 9996 2 47930 51.6420 270.1639 0002165 62.9698 297.1512 15.52429858 16963 GuaraniSat-1 1 47931U 98067SH 21182.53940610 .00010622 00000-0 18238-3 0 9992 2 47931 51.6422 270.2859 0002437 73.8221 286.3037 15.51734756 16963 CubeSX-Sirius-HSE 1 47951U 21022V 21182.53316808 .00001381 00000-0 99392-4 0 9990 2 47951 97.5585 84.4067 0020808 263.0878 96.7991 15.05691107 15178 CubeSX-HSE 1 47952U 21022W 21182.53058101 .00001364 00000-0 98133-4 0 9993 2 47952 97.5578 84.4082 0020637 262.7754 97.1118 15.05731294 15175 KSU-Cubesat 1 47954U 21022Y 21182.45906513 .00000934 00000-0 68423-4 0 9996 2 47954 97.5589 84.3555 0019912 263.0385 96.8577 15.05811593 14884 GRBAlpha 1 47959U 21022AD 21182.53079591 .00001395 00000-0 10028-3 0 9996 2 47959 97.5582 84.4153 0020443 263.1499 96.7386 15.05729534 13996 Orbicraft-Zorkiy 1 47960U 21022AE 21182.52640966 .00001304 00000-0 93907-4 0 9995 2 47960 97.5604 84.4376 0020087 263.2057 96.6860 15.05798550 14682 STECCO 1 47962U 21022AG 21182.49112338 .00001681 00000-0 11670-3 0 9994 2 47962 97.5559 84.5124 0015422 259.7691 273.9378 15.06839230 13984 DO-111 1 47963U 21022AH 21182.23639455 .00002490 00000-0 16852-3 0 9997 2 47963 97.5571 84.3263 0017689 257.8081 102.1165 15.07318804 13976 MO-110 1 47964U 21022AJ 21182.17624156 .00001000 00000-0 70555-4 0 9990 2 47964 97.5572 84.2499 0018093 258.0163 101.9036 15.07103857 13943 RamSat 1 48850U 98067SL 21182.52904312 .00008283 00000-0 15385-3 0 9991 2 48850 51.6417 271.6983 0003963 189.5123 170.5792 15.49830885 2696 MIR-SAT1 1 48868U 98067SP 21179.69602259 .00013025 00000-0 23878-3 0 9995 2 48868 51.6439 285.7711 0003006 182.6608 177.4342 15.49640979 10316 /EX
